sat.trackr.live / text

‹ back to catalog

STARLINK-4122

NORAD 53272 · 2022-086AG

PAYLOAD ACTIVE UNKNOWN

§ Identity

Operator
Country
US
Launch date
2022-07-24
Launch site
AFETR
Launch vehicle
Mass (kg)
RCS (m²)

Purposes: comms

External: N2YO · Heavens-Above · Gunter

§ Orbital elements

Epoch: 2026-09-19T22:17:38.670720Z

Period
93.85 min
Inclination
53.1603°
Eccentricity
0.0001019
Mean motion
15.34397355 rev/d
Perigee alt
462.0 km
Apogee alt
463.4 km
Semi-major
6,840.8 km
B*
2.9345e-6
RAAN
16.0393°
Arg perigee
80.6015°
Mean anomaly
279.5102°
Rev number
23,074

§ Raw data

STARLINK-41221 53272U 22086AG  26262.92891980 -.00000277  00000+0  29345-5 0  99952 53272  53.1603  16.0393 0001019  80.6015 279.5102 15.34397355230749

JSON: /api/v1/satellites/53272 · /tle

For live sub-satellite position, see the globe view (requires WebGL).

§ Visibility from observer

Set your observer location to see the next 7 days of passes ≥ 10°. The values pass through the URL so the page stays shareable.

No JS? Fill the form by hand. The geolocation button needs JavaScript.